KC0VVH Weather Reports


Display with metric or nautical units.
time (UTC)temp
F
wind
direction
speed
MPH
gust
MPH
rain 1hr
in
rain 24hr
in
rain mn
in
humidity
%
barometer
mb
20260508050015 66 234 2.0 9.0 0.00 0.00 0.00 24 1017.9
20260508045415 66 222 1.0 7.0 0.00 0.00 0.00 25 1017.9
20260508044515 66 213 2.0 6.0 0.00 0.00 0.00 25 1017.9
20260508043615 65 213 1.0 4.0 0.00 0.00 0.00 25 1017.9
20260508042736 65 213 1.0 5.0 0.00 0.00 0.00 25 1017.9
20260508041824 65 0 0.0 0.0 0.00 0.00 0.00 26 1017.9
20260508040915 65 212 0.0 2.0 0.00 0.00 0.00 25 1017.9
20260508040015 65 212 0.0 2.0 0.00 0.00 0.00 25 1017.9
20260508035403 65 0 0.0 0.0 0.00 0.00 0.00 25 1017.9
20260508034524 65 213 0.0 4.0 0.00 0.00 0.00 25 1017.9
20260508033636 65 0 0.0 0.0 0.00 0.00 0.00 26 1017.9
20260508032702 65 0 0.0 0.0 0.00 0.00 0.00 26 1017.9
20260508031803 65 0 0.0 0.0 0.00 0.00 0.00 27 1017.9
20260508030915 66 0 0.0 0.0 0.00 0.00 0.00 27 1017.9
20260508030024 66 0 0.0 0.0 0.00 0.00 0.00 27 1017.9
20260508025415 66 0 0.0 0.0 0.00 0.00 0.00 27 1017.9
20260508024515 67 0 0.0 0.0 0.00 0.00 0.00 25 1017.9
20260508023603 68 0 0.0 0.0 0.00 0.00 0.00 25 1017.9
20260508022703 68 0 0.0 0.0 0.00 0.00 0.00 24 1017.9
20260508021815 68 212 0.0 2.0 0.00 0.00 0.00 23 1017.9
20260508020915 68 213 0.0 3.0 0.00 0.00 0.00 23 1017.9
20260508020015 69 0 0.0 0.0 0.00 0.00 0.00 23 1017.9
20260508015415 69 0 0.0 0.0 0.00 0.00 0.00 23 1017.9
20260508014515 69 0 0.0 1.0 0.00 0.00 0.00 23 1017.9
20260508013615 69 160 0.0 5.0 0.00 0.00 0.00 23 1017.9
20260508012715 69 44 1.0 4.0 0.00 0.00 0.00 23 1017.9
20260508011803 70 44 1.0 5.0 0.00 0.00 0.00 22 1017.9
20260508010936 71 42 0.0 4.0 0.00 0.00 0.00 22 1017.9
20260508010003 71 41 1.0 5.0 0.00 0.00 0.00 21 1017.9
20260508005436 71 41 1.0 5.0 0.00 0.00 0.00 21 1017.9
20260508004515 72 40 0.0 4.0 0.00 0.00 0.00 20 1017.9
20260508003615 73 40 1.0 4.0 0.00 0.00 0.00 20 1017.9
20260508002736 74 40 1.0 4.0 0.00 0.00 0.00 20 1017.9
20260508001803 74 40 1.0 4.0 0.00 0.00 0.00 19 1017.9
20260508000903 75 40 0.0 4.0 0.00 0.00 0.00 19 1017.9
20260508000003 74 40 1.0 5.0 0.00 0.00 0.00 18 1017.9
20260507235436 74 40 1.0 5.0 0.00 0.00 0.00 19 1017.9
20260507234515 73 38 2.0 5.0 0.00 0.00 0.00 19 1017.9
20260507233603 73 38 1.0 3.0 0.00 0.00 0.00 19 1017.9
20260507232715 74 38 1.0 4.0 0.00 0.00 0.00 18 1017.9
20260507231803 74 38 0.0 5.0 0.00 0.00 0.00 19 1017.9
20260507230915 74 34 2.0 9.0 0.00 0.00 0.00 19 1017.9
20260507230015 75 38 3.0 7.0 0.00 0.00 0.00 18 1017.9
20260507225415 75 40 2.0 7.0 0.00 0.00 0.00 18 1017.9
20260507224524 75 36 1.0 6.0 0.00 0.00 0.00 18 1017.9
20260507223603 75 28 1.0 5.0 0.00 0.00 0.00 18 1017.9
20260507222736 74 33 2.0 8.0 0.00 0.00 0.00 18 1017.9
20260507221815 73 46 0.0 5.0 0.00 0.00 0.00 19 1017.9
20260507220915 74 37 2.0 5.0 0.00 0.00 0.00 17 1017.9
20260507220015 74 45 3.0 9.0 0.00 0.00 0.00 18 1017.9
20260507215424 73 57 3.0 7.0 0.00 0.00 0.00 19 1017.9
20260507214503 72 60 2.0 7.0 0.00 0.00 0.00 19 1017.9
20260507213615 73 31 1.0 6.0 0.00 0.00 0.00 19 1017.9
20260507212715 72 32 3.0 8.0 0.00 0.00 0.00 19 1017.9
20260507211815 72 29 1.0 5.0 0.00 0.00 0.00 20 1017.9
20260507210903 72 9 1.0 8.0 0.00 0.00 0.00 19 1017.9
20260507210015 71 8 2.0 9.0 0.00 0.00 0.00 19 1017.9
20260507205403 71 11 2.0 9.0 0.00 0.00 0.00 19 1017.9
20260507204515 70 42 3.0 8.0 0.00 0.00 0.00 21 1017.9
20260507203603 69 43 2.0 7.0 0.00 0.00 0.00 21 1017.9
20260507202715 69 35 2.0 8.0 0.00 0.00 0.00 21 1017.9
20260507201815 68 82 1.0 8.0 0.00 0.00 0.00 22 1017.9
20260507200915 67 37 1.0 4.0 0.00 0.00 0.00 22 1017.9
20260507200015 68 46 3.0 11.0 0.00 0.00 0.00 21 1017.9
20260507195403 68 42 4.0 11.0 0.00 0.00 0.00 21 1017.9
20260507194503 68 21 1.0 6.0 0.00 0.00 0.00 20 1017.9
20260507193636 68 40 3.0 6.0 0.00 0.00 0.00 21 1017.9
20260507192703 68 29 2.0 7.0 0.00 0.00 0.00 21 1017.9
20260507191815 66 15 2.0 7.0 0.00 0.00 0.00 22 1017.9
20260507190903 66 46 2.0 7.0 0.00 0.00 0.00 22 1017.9
20260507190036 66 50 2.0 8.0 0.00 0.00 0.00 21 1017.9
20260507185403 66 37 2.0 8.0 0.00 0.00 0.00 21 1017.9
20260507184515 65 19 1.0 5.0 0.00 0.00 0.00 22 1017.9
20260507183615 64 13 1.0 8.0 0.00 0.00 0.00 23 1017.9
20260507182703 64 41 1.0 5.0 0.00 0.00 0.00 22 1017.9
20260507181803 64 10 2.0 8.0 0.00 0.00 0.00 22 1017.9
20260507180903 64 12 2.0 8.0 0.00 0.00 0.00 22 1017.9
20260507180015 64 28 2.0 9.0 0.00 0.00 0.00 23 1017.9
20260507175424 63 31 1.0 8.0 0.00 0.00 0.00 22 1017.9
20260507174515 63 44 2.0 9.0 0.00 0.00 0.00 22 1017.9
20260507173615 62 27 1.0 8.0 0.00 0.00 0.00 22 1017.9
20260507172715 62 27 1.0 8.0 0.00 0.00 0.00 23 1017.9
20260507171815 61 328 0.0 5.0 0.00 0.00 0.00 23 1017.9
20260507170915 60 348 1.0 5.0 0.00 0.00 0.00 23 1017.9
20260507170015 58 175 0.0 4.0 0.00 0.00 0.00 26 1017.9
20260507165415 58 104 1.0 5.0 0.00 0.00 0.00 27 1017.9
20260507164503 58 61 0.0 4.0 0.00 0.00 0.00 26 1017.9
20260507163636 58 61 0.0 4.0 0.00 0.00 0.00 29 1017.9
20260507162703 58 56 2.0 8.0 0.00 0.00 0.00 27 1017.9
20260507161803 57 62 1.0 6.0 0.00 0.00 0.00 29 1017.9
20260507160915 56 68 1.0 6.0 0.00 0.00 0.00 30 1017.9
20260507160036 56 37 0.0 7.0 0.00 0.00 0.00 30 1017.9
20260507155415 55 55 1.0 8.0 0.00 0.00 0.00 31 1017.9
20260507154515 54 59 2.0 10.0 0.00 0.00 0.00 32 1017.9
20260507153615 52 151 3.0 12.0 0.00 0.00 0.00 35 1017.9
20260507152736 50 201 5.0 12.0 0.00 0.00 0.00 36 1017.9
20260507151803 50 210 4.0 12.0 0.00 0.00 0.00 38 1017.9
20260507150915 50 207 3.0 11.0 0.00 0.00 0.00 38 1017.9
20260507150015 50 52 1.0 10.0 0.00 0.00 0.00 39 1017.9
20260507145415 50 76 0.0 5.0 0.00 0.00 0.00 39 1017.9
20260507144503 49 149 1.0 8.0 0.00 0.00 0.00 40 1017.9
20260507143615 49 49 0.0 6.0 0.00 0.00 0.00 40 1017.9
20260507142715 48 43 0.0 3.0 0.00 0.00 0.00 42 1017.9
20260507141815 48 43 0.0 3.0 0.00 0.00 0.00 41 1017.9
20260507140936 47 44 0.0 3.0 0.00 0.00 0.00 43 1017.9
20260507140003 46 50 0.0 5.0 0.00 0.00 0.00 44 1017.9
20260507135415 46 58 0.0 5.0 0.00 0.00 0.00 45 1017.9
20260507134524 45 55 1.0 7.0 0.00 0.00 0.00 45 1017.9
20260507133615 45 57 1.0 5.0 0.00 0.00 0.00 45 1017.9
20260507132715 45 63 1.0 4.0 0.00 0.00 0.00 45 1017.9
20260507131815 44 225 0.0 5.0 0.00 0.00 0.00 45 1017.9
20260507130903 44 229 1.0 9.0 0.00 0.00 0.00 44 1017.9
20260507130015 43 212 2.0 7.0 0.00 0.00 0.00 44 1017.9
20260507125403 43 203 2.0 7.0 0.00 0.01 0.00 45 1017.9
20260507124515 42 189 3.0 13.0 0.00 0.01 0.00 47 1017.9
20260507123603 40 194 4.0 8.0 0.00 0.01 0.00 50 1017.9
20260507122715 39 218 3.0 8.0 0.00 0.02 0.00 53 1017.9
20260507121803 38 253 1.0 5.0 0.00 0.04 0.00 55 1017.9
20260507120915 38 255 0.0 5.0 0.00 0.05 0.00 54 1017.9
20260507120015 38 0 0.0 0.0 0.00 0.05 0.00 53 1017.9
20260507115424 39 0 0.0 0.0 0.00 0.06 0.00 52 1017.9
20260507114503 39 0 0.0 0.0 0.00 0.06 0.00 53 1017.9
20260507113615 39 0 0.0 0.0 0.00 0.06 0.00 53 1017.9
20260507112715 39 0 0.0 0.0 0.00 0.06 0.00 52 1017.9
20260507111815 39 256 0.0 1.0 0.00 0.06 0.00 51 1017.9
20260507110936 39 0 0.0 0.0 0.00 0.06 0.00 50 1017.9
20260507110015 38 0 0.0 0.0 0.00 0.06 0.00 50 1017.9
20260507105415 39 0 0.0 0.0 0.00 0.06 0.00 50 1017.9
20260507104515 38 0 0.0 0.0 0.00 0.06 0.00 50 1017.9
20260507103636 39 0 0.0 0.0 0.00 0.06 0.00 49 1017.9
20260507102715 39 0 0.0 0.0 0.00 0.06 0.00 48 1017.9
20260507101815 40 0 0.0 0.0 0.00 0.06 0.00 48 1017.9
20260507100915 40 0 0.0 0.0 0.00 0.06 0.00 48 1017.9
20260507100015 39 0 0.0 0.0 0.00 0.06 0.00 49 1017.9
20260507095424 39 0 0.0 0.0 0.00 0.06 0.00 49 1017.9
20260507094515 39 0 0.0 0.0 0.00 0.06 0.00 48 1017.9
20260507093615 40 0 0.0 0.0 0.00 0.06 0.00 47 1017.9
20260507092703 40 0 0.0 0.0 0.00 0.06 0.00 46 1017.9
20260507091803 41 0 0.0 0.0 0.00 0.06 0.00 44 1017.9
20260507090915 41 0 0.0 0.0 0.00 0.06 0.00 44 1017.9
20260507090015 42 0 0.0 0.0 0.00 0.06 0.00 45 1017.9
20260507085403 41 0 0.0 0.0 0.00 0.06 0.00 45 1017.9
20260507084524 40 0 0.0 0.0 0.00 0.06 0.00 46 1017.9
20260507083615 40 0 0.0 0.0 0.00 0.06 0.00 46 1017.9
20260507082724 41 0 0.0 0.0 0.00 0.06 0.00 46 1017.9
20260507081815 41 0 0.0 0.0 0.00 0.06 0.00 47 1017.9
20260507080915 41 0 0.0 0.0 0.00 0.06 0.00 47 1017.9
20260507080024 40 0 0.0 0.0 0.00 0.06 0.00 48 1017.9
20260507075403 40 0 0.0 0.0 0.00 0.06 0.00 47 1017.9
20260507074515 41 0 0.0 0.0 0.00 0.06 0.00 47 1017.9
20260507073615 41 0 0.0 0.0 0.00 0.06 0.00 45 1017.9
20260507072715 42 0 0.0 0.0 0.00 0.06 0.00 43 1017.9
20260507071815 43 0 0.0 0.0 0.00 0.06 0.00 43 1017.9
20260507070903 44 0 0.0 0.0 0.00 0.06 0.00 40 1017.9
20260507070015 45 0 0.0 0.0 0.00 0.06 0.00 38 1017.9
20260507065415 46 0 0.0 0.0 0.00 0.06 0.00 35 1017.9
20260507064503 48 0 0.0 0.0 0.00 0.06 0.00 33 1017.9
20260507063615 49 0 0.0 0.0 0.00 0.06 0.00 31 1017.9
20260507062715 50 238 0.0 4.0 0.00 0.06 0.00 27 1017.9
20260507061815 50 195 0.0 7.0 0.00 0.06 0.00 27 1017.9
20260507060903 51 188 0.0 4.0 0.00 0.06 0.00 26 1017.9
20260507060015 51 187 0.0 1.0 0.00 0.06 0.00 26 1017.9
20260507055403 51 187 0.0 5.0 0.00 0.06 0.06 26 1017.9
20260507054503 51 188 2.0 6.0 0.00 0.06 0.06 26 1017.9
20260507053615 51 189 2.0 6.0 0.00 0.06 0.06 26 1017.9
20260507052715 50 206 2.0 7.0 0.00 0.06 0.06 27 1017.9
20260507051815 50 214 1.0 7.0 0.00 0.06 0.06 28 1017.9
20260507050915 49 226 0.0 4.0 0.00 0.06 0.06 28 1017.9